Wind_Speed
4 8 12 14 13 11 15 13 11 10 11 18 20 21 24 24 30 27 25 27 30 32 35 31 28 26 27 27 26 24 26 24 24 26 27 24 24 29 35 37 34 37 38
6 5 12 15 12 13 13 12 8 5 9 14 18 17 15 15 21 20 19 19 22 24 23 23 21 21 21 22 24 25 25 26 26 28 27 30 35 34 35 37 37 34 31
6 10 11 13 16 15 15 16 15 14 15 12 12 11 8 9 13 13 13 14 13 13 15 18 21 22 22 22 24 26 26 27 25 33 37 39 37 35 37 35 31 30 30
6 11 12 15 13 12 11 11 11 6 9 8 7 9 10 11 12 14 14 16 16 18 19 20 22 21 22 24 27 29 30 34 33 35 34 35 36 34 32 28 28 28 28
11 12 14 15 14 12 11 9 8 8 6 7 8 8 10 12 14 15 17 18 19 20 23 26 27 27 29 32 31 32 30 33 33 34 35 34 33 30 27 26 25 26 26
12 12 11 11 9 7 6 5 3 1 4 7 8 9 10 12 13 15 16 17 21 25 26 26 26 26 26 27 28 29 30 31 31 30 31 29 27 26 25 25 23 22 23
11 12 12 12 10 8 6 5 4 4 4 5 5 6 7 9 10 13 15 17 19 21 22 23 24 25 26 25 24 27 28 27 27 26 25 25 25 23 22 21 20 21 22
12 11 10 9 9 8 7 6 5 3 2 1 1 3 5 7 8 10 13 15 17 19 20 21 22 23 24 24 24 24 24 23 22 23 23 22 20 20 18 19 19 20 21
13 12 11 10 8 8 7 5 3 2 1 1 2 3 5 6 7 9 11 13 14 16 18 20 22 23 23 22 22 22 22 22 19 18 19 19 19 17 18 19 19 18 18
13 13 12 11 8 6 5 3 1 2 3 4 5 6 6 7 9 10 11 12 13 14 16 17 19 21 21 20 20 20 18 18 18 18 18 17 18 17 17 18 19 19 19
14 13 12 10 8 6 4 3 2 2 3 4 5 6 8 9 10 11 12 13 14 15 15 16 18 18 19 18 18 16 16 18 18 18 17 17 17 17 17 18 20 20 21
14 13 12 10 9 7 6 5 5 5 6 6 7 8 9 9 10 12 13 14 15 15 15 17 17 18 18 18 17 17 17 18 18 18 18 19 19 19 19 19 20 22 22
13 12 12 12 11 10 9 8 8 8 9 11 11 11 12 13 15 15 15 16 16 17 17 17 18 18 17 18 18 18 17 19 20 20 20 20 21 21 21 21 21 22 22
16 15 14 14 13 13 12 12 11 11 12 13 13 13 13 14 18 18 17 17 17 17 17 17 18 17 17 18 19 19 19 19 20 21 20 21 22 22 22 21 21 21 23
18 18 17 16 15 15 15 14 14 14 14 15 15 15 15 16 20 20 20 19 19 19 19 18 18 18 17 17 18 19 20 21 21 21 20 20 21 22 22 21 21 21 22
19 19 18 17 18 18 17 16 16 16 16 17 18 17 16 17 20 21 20 19 19 19 19 19 18 17 17 18 18 19 20 21 21 20 20 20 20 20 21 21 21 21 23
19 20 20 20 20 19 19 19 20 19 19 19 19 19 18 19 20 22 20 19 19 20 19 19 18 17 17 17 18 18 18 19 19 18 19 19 19 20 19 19 20 22 23
20 21 22 22 22 22 22 23 23 22 22 21 20 20 21 21 22 23 22 22 20 20 21 20 18 18 18 17 17 17 17 17 17 16 16 16 16 15 15 17 19 21 21
22 22 23 24 25 25 26 26 26 25 24 23 22 22 24 23 23 24 23 22 22 22 22 21 19 18 18 17 17 17 17 16 15 14 14 13 13 13 14 16 16 17 20
24 25 26 26 27 28 28 28 27 26 26 24 26 26 25 23 25 26 22 21 21 22 22 21 20 19 18 17 17 16 16 15 13 13 12 12 12 12 12 14 17 19 20
26 27 27 28 28 28 28 27 27 28 28 29 31 29 30 24 24 26 18 19 21 22 21 21 20 19 18 18 17 16 14 13 12 12 11 10 10 10 13 16 19 19 19
26 28 28 28 28 28 28 26 29 29 30 31 34 34 32 26 23 24 15 17 21 21 21 20 19 18 17 17 16 15 13 12 11 10 9 9 10 12 15 17 18 18 17
23 27 27 29 30 30 30 30 29 31 32 33 36 36 31 22 24 17 13 19 20 20 20 19 19 18 17 16 14 13 12 11 11 10 10 10 12 14 16 16 16 16 16
24 26 27 28 29 30 30 31 31 32 33 35 36 31 25 20 20 12 16 19 18 18 18 18 18 17 15 14 12 11 10 10 11 11 10 11 12 14 15 15 15 16 15
23 24 24 25 25 27 28 30 31 32 33 35 27 23 19 19 13 13 16 17 17 17 17 17 16 15 14 12 11 10 9 10 10 10 11 12 13 14 15 15 15 16 16
20 19 19 20 21 22 22 24 27 27 28 21 18 16 17 13 11 14 15 15 15 16 16 16 15 13 12 11 10 10 10 10 11 13 13 14 15 16 16 16 17 18 18
Wind_Direction
66 187 161 151 155 160 185 206 213 221 210 218 225 228 222 230 238 241 249 247 245 247 246 258 261 267 269 269 272 279 279 276 273 277 275 272 277 285 288 291 295 292 292
108 119 166 159 167 159 157 165 164 198 212 228 206 226 202 209 220 245 241 247 253 257 255 263 269 271 272 277 280 278 278 275 274 271 278 280 284 287 286 288 291 290 290
164 149 163 160 158 149 155 156 156 174 191 191 187 177 200 221 228 229 231 239 246 250 254 260 262 266 270 273 276 279 281 273 274 281 283 285 282 281 285 288 288 287 289
174 153 159 159 168 177 162 162 151 177 188 229 216 207 204 217 223 227 234 245 256 256 261 262 269 270 268 268 274 276 275 279 279 281 282 283 283 285 286 287 287 288 289
145 142 142 148 158 162 159 151 156 179 193 220 222 230 236 237 239 244 243 251 258 256 265 273 276 271 269 270 275 279 278 279 280 281 281 282 283 284 286 289 289 288 287
146 146 144 143 143 138 136 138 154 185 247 251 251 245 249 251 255 257 261 253 249 262 268 269 270 272 272 273 273 277 279 280 279 281 281 281 282 286 290 289 287 285 285
155 150 148 147 144 140 138 146 168 197 226 245 256 263 264 267 267 266 266 266 268 270 270 272 272 273 273 275 277 278 277 279 280 280 280 282 284 286 286 285 282 284 287
164 155 149 145 145 146 146 146 155 166 179 220 289 289 289 286 281 278 277 278 276 276 276 276 277 277 278 278 281 278 278 280 280 278 278 278 278 281 280 279 280 285 289
164 159 156 157 157 154 154 157 156 139 79 358 341 330 325 314 303 291 284 282 280 279 279 280 279 277 277 280 282 281 282 282 279 277 278 281 281 279 277 278 282 286 285
168 167 168 169 168 162 157 145 107 40 8 349 335 328 323 322 321 316 307 296 289 284 281 278 279 281 284 282 277 277 278 280 282 282 281 277 276 275 274 281 288 283 285
182 182 182 184 187 191 202 218 240 283 307 318 321 322 324 326 325 322 318 311 305 299 294 289 285 284 282 280 277 275 274 276 280 280 277 277 278 279 282 285 284 278 285
196 199 201 204 211 222 236 253 267 284 296 303 309 314 319 326 328 323 319 317 313 308 302 297 295 293 290 286 281 277 275 279 280 280 280 282 282 280 281 285 281 275 285
218 220 222 226 231 239 250 265 280 292 298 301 303 309 314 323 327 323 321 320 316 313 311 306 303 297 291 285 281 277 274 276 278 279 279 279 280 281 282 282 281 279 289
228 232 239 245 251 258 266 273 279 286 290 294 294 296 298 309 319 316 315 317 316 314 311 307 302 298 293 288 284 283 280 278 279 279 278 277 276 276 279 282 284 286 291
240 242 243 247 252 258 263 265 272 278 281 284 283 285 289 307 317 316 315 316 316 314 313 311 307 302 298 293 288 285 282 279 277 277 277 276 276 277 279 282 285 288 295
243 246 249 250 249 250 253 261 268 273 278 281 281 283 285 302 314 312 309 311 313 314 314 313 308 303 299 295 290 286 283 281 279 278 278 279 280 281 282 284 287 293 298
245 246 246 246 247 251 256 260 265 270 275 278 281 282 282 293 309 311 307 308 310 311 313 311 306 303 299 295 292 289 285 282 280 280 280 281 284 285 285 286 290 296 301
247 246 246 246 245 248 253 258 264 268 271 275 278 280 280 287 307 311 306 306 309 310 311 309 307 304 302 300 296 293 290 287 285 285 286 288 287 287 289 292 297 302 305
251 250 251 251 252 253 255 259 265 267 270 273 276 276 281 285 300 305 303 305 309 312 311 308 307 306 304 302 300 299 295 291 289 289 290 290 291 294 295 299 303 306 309
253 252 250 249 252 255 259 262 265 269 270 268 271 270 272 278 291 301 298 303 306 308 307 305 304 305 304 303 300 297 295 291 287 288 291 290 290 293 299 305 309 311 311
255 255 254 254 255 258 261 266 269 267 268 265 272 270 272 270 278 293 289 301 304 304 303 302 302 304 304 302 300 297 293 286 283 286 285 284 286 295 307 312 313 313 312
261 257 257 257 257 258 260 262 266 265 265 265 270 274 274 275 281 287 290 299 298 300 301 301 303 304 304 302 298 295 287 280 278 281 280 279 291 304 312 314 314 313 312
264 258 258 258 256 256 255 256 257 260 262 266 272 274 282 277 283 281 291 292 296 299 300 301 303 305 304 302 299 295 285 276 272 275 275 284 298 307 313 314 315 317 317
271 261 257 255 254 254 255 254 255 259 263 274 278 284 284 279 278 274 286 291 297 298 299 302 304 304 305 304 302 298 287 276 272 274 279 291 301 308 312 313 316 319 319
271 264 260 259 256 256 253 251 254 263 276 280 288 286 274 280 268 282 287 293 295 299 303 304 304 306 306 306 309 307 295 281 278 281 288 295 300 306 309 309 309 313 314
265 263 260 257 258 257 256 258 262 276 278 287 282 272 278 266 276 281 288 294 299 302 303 304 305 305 305 308 310 304 296 292 291 292 293 294 296 299 303 307 307 306 307
Height
3088 3088 3089 3091 3094 3096 3100 3102 3104 3107 3109 3111 3114 3116 3118 3120 3122 3125 3126 3127 3129 3129 3130 3132 3132 3132 3133 3134 3134 3133 3133 3132 3130 3131 3130 3129 3127 3126 3124 3123 3122 3121 3118
3089 3089 3090 3093 3095 3096 3098 3101 3104 3106 3108 3110 3111 3114 3116 3118 3121 3122 3123 3125 3126 3126 3127 3127 3127 3127 3128 3128 3128 3129 3129 3127 3125 3125 3125 3123 3121 3118 3117 3117 3115 3111 3109
3091 3093 3095 3095 3097 3099 3100 3100 3101 3104 3106 3108 3109 3110 3113 3116 3118 3119 3120 3122 3123 3123 3123 3123 3123 3122 3122 3123 3123 3124 3123 3123 3121 3118 3118 3117 3113 3112 3110 3108 3105 3104 3102
3093 3094 3094 3096 3098 3101 3101 3102 3103 3106 3108 3109 3110 3110 3109 3111 3113 3114 3115 3117 3117 3118 3119 3118 3117 3117 3117 3116 3118 3118 3118 3117 3114 3113 3110 3109 3107 3105 3103 3101 3100 3097 3095
3094 3095 3096 3099 3101 3103 3103 3102 3104 3106 3107 3109 3109 3109 3110 3111 3111 3111 3112 3113 3113 3113 3114 3113 3112 3111 3110 3109 3109 3110 3110 3111 3109 3106 3104 3102 3099 3097 3096 3095 3093 3091 3089
3095 3096 3097 3099 3101 3101 3101 3102 3104 3104 3106 3107 3107 3107 3108 3108 3107 3107 3107 3108 3109 3108 3109 3108 3107 3107 3104 3104 3103 3102 3101 3102 3102 3099 3099 3096 3094 3091 3090 3089 3088 3086 3084
3095 3097 3098 3099 3100 3101 3102 3103 3104 3105 3106 3107 3106 3105 3105 3105 3104 3104 3104 3103 3103 3102 3102 3102 3101 3101 3099 3097 3097 3095 3095 3094 3093 3093 3092 3090 3088 3086 3085 3084 3083 3081 3078
3095 3096 3098 3100 3101 3102 3103 3104 3105 3105 3105 3105 3105 3104 3103 3102 3100 3100 3099 3098 3099 3098 3098 3097 3095 3095 3094 3092 3090 3089 3087 3086 3086 3087 3085 3085 3083 3081 3079 3079 3078 3076 3074
3095 3097 3099 3100 3102 3103 3104 3105 3105 3104 3104 3103 3102 3102 3101 3100 3098 3097 3097 3095 3094 3094 3092 3091 3090 3090 3089 3086 3083 3082 3081 3080 3081 3081 3080 3079 3077 3076 3075 3074 3073 3071 3070
3095 3097 3099 3101 3102 3103 3103 3103 3103 3102 3102 3101 3101 3100 3099 3098 3096 3095 3094 3093 3092 3090 3088 3087 3086 3084 3082 3081 3079 3077 3076 3075 3075 3075 3074 3073 3072 3071 3070 3069 3067 3066 3066
3093 3095 3097 3098 3099 3100 3101 3101 3101 3101 3101 3101 3100 3099 3098 3096 3095 3094 3093 3091 3089 3086 3084 3082 3081 3079 3077 3075 3074 3073 3072 3070 3070 3069 3068 3067 3066 3065 3064 3063 3063 3062 3061
3090 3092 3094 3095 3097 3098 3098 3099 3099 3099 3099 3099 3098 3097 3096 3094 3092 3091 3090 3088 3085 3083 3081 3078 3076 3074 3071 3069 3068 3068 3068 3066 3064 3063 3062 3060 3059 3059 3059 3058 3057 3057 3056
3088 3090 3091 3092 3093 3094 3095 3095 3096 3096 3096 3095 3094 3093 3092 3091 3089 3087 3085 3083 3081 3079 3076 3073 3071 3069 3067 3065 3064 3063 3063 3061 3060 3058 3056 3055 3054 3053 3053 3053 3052 3051 3049
3084 3086 3088 3090 3091 3092 3093 3093 3093 3093 3092 3092 3091 3090 3089 3088 3086 3083 3081 3079 3077 3074 3072 3069 3066 3064 3062 3060 3058 3057 3056 3055 3054 3052 3051 3050 3049 3049 3048 3047 3046 3044 3043
3081 3083 3084 3086 3087 3089 3089 3089 3089 3089 3088 3088 3087 3086 3085 3084 3082 3080 3078 3075 3072 3070 3067 3064 3061 3058 3055 3053 3052 3051 3050 3049 3047 3046 3045 3044 3044 3043 3042 3041 3040 3038 3036
3077 3078 3080 3081 3082 3082 3083 3084 3084 3084 3084 3083 3083 3082 3081 3080 3078 3076 3073 3070 3067 3063 3061 3058 3055 3053 3050 3048 3047 3045 3043 3042 3041 3040 3039 3038 3038 3037 3036 3034 3033 3031 3030
3073 3074 3076 3076 3077 3079 3079 3080 3080 3079 3079 3079 3078 3077 3076 3075 3073 3070 3067 3065 3062 3059 3056 3053 3051 3048 3046 3044 3042 3040 3038 3037 3035 3034 3033 3032 3032 3031 3029 3028 3026 3025 3023
3068 3070 3071 3072 3073 3073 3074 3074 3074 3074 3074 3073 3073 3072 3071 3070 3068 3065 3062 3059 3057 3054 3051 3048 3046 3043 3041 3039 3036 3034 3032 3031 3030 3029 3028 3027 3026 3025 3023 3022 3021 3019 3018
3063 3065 3066 3067 3068 3068 3068 3068 3068 3069 3068 3068 3068 3066 3065 3064 3062 3059 3057 3055 3052 3049 3047 3044 3041 3038 3036 3033 3031 3029 3027 3026 3025 3024 3023 3022 3021 3020 3019 3018 3016 3014 3012
3057 3059 3059 3060 3061 3062 3062 3062 3062 3063 3062 3062 3061 3060 3058 3058 3056 3054 3051 3050 3047 3044 3042 3039 3037 3034 3031 3029 3027 3025 3023 3021 3020 3020 3019 3018 3017 3016 3015 3014 3012 3009 3007
3051 3052 3053 3054 3054 3055 3056 3057 3057 3056 3056 3055 3053 3052 3050 3049 3049 3048 3046 3045 3043 3040 3038 3035 3032 3029 3026 3024 3022 3020 3019 3017 3017 3016 3015 3014 3014 3013 3011 3010 3007 3004 3002
3044 3045 3046 3047 3048 3048 3049 3050 3049 3049 3049 3047 3046 3044 3043 3043 3043 3042 3041 3040 3038 3035 3033 3030 3028 3025 3022 3020 3018 3016 3015 3014 3013 3013 3012 3011 3010 3009 3007 3005 3002 3000 2997
3037 3038 3039 3039 3040 3040 3041 3041 3042 3042 3041 3040 3038 3038 3038 3038 3038 3036 3036 3035 3033 3030 3028 3026 3023 3021 3018 3016 3014 3012 3011 3010 3010 3009 3009 3008 3007 3005 3003 3001 2998 2996 2993
3030 3030 3031 3031 3031 3033 3034 3034 3035 3034 3034 3034 3032 3033 3034 3033 3032 3031 3031 3030 3027 3025 3024 3021 3019 3017 3014 3012 3011 3009 3008 3007 3007 3006 3005 3004 3003 3001 2999 2996 2994 2992 2990
3023 3023 3024 3024 3026 3026 3027 3028 3029 3029 3029 3028 3029 3029 3028 3027 3026 3027 3026 3024 3023 3021 3019 3017 3015 3013 3011 3009 3007 3005 3005 3004 3004 3003 3002 3001 2999 2997 2995 2993 2990 2988 2986
3015 3016 3017 3018 3019 3020 3021 3023 3024 3024 3023 3024 3024 3024 3024 3023 3022 3023 3021 3020 3019 3017 3016 3014 3012 3010 3008 3006 3005 3003 3002 3001 3000 2999 2998 2996 2994 2992 2990 2988 2986 2984 2981